Location: Torch Lake Township
(45.0753°N, 85.3586°W)
Time: 21:24:10
(UTC-04:00)

Amateur Radio Satellites - All Passes

Search period start: 29 May 2017 20:54
Search period end: 30 May 2017 20:54
Location: Torch Lake Township, 45.0753°N, 85.3586°W

Satellite Date Start Highest point End Downlink Frequencies (MHz)
Time Altitude Azimuth
ISS 29 May 20:55:25 20:58:41 69° 148° (SSE) 21:01:59 437.550
AO-73 29 May 21:03:30 21:07:33 44° 71° (ENE) 21:11:44 145.935
XW-2A 29 May 21:09:45 21:12:18 20° 266° (W) 21:14:52 145.665 - 145.685
SEEDS 29 May 21:16:18 21:20:06 32° 264° (W) 21:23:56 437.485
STRAND 1 29 May 21:18:47 21:23:58 84° 103° (ESE) 21:29:08 437.568
ZACube-1 29 May 21:19:26 21:23:40 73° 75° (ENE) 21:28:03 437.345
Tancredo 1 29 May 21:25:50 21:28:49 47° 337° (NNW) 21:31:48 437.200
CUBEBUG 2 29 May 21:49:05 21:52:12 20° 268° (W) 21:55:22 437.445
UWE-3 29 May 21:51:05 21:54:48 30° 265° (W) 21:58:38 435.000/436.395/437.385
DELFI C3 29 May 21:52:03 21:55:38 32° 70° (ENE) 21:59:13 145.870
PCSat 29 May 21:53:17 21:56:55 18° 324° (NW) 22:00:34 145.827
AAUSAT CUBESAT 2 29 May 22:06:12 22:09:16 20° 268° (W) 22:12:20 437.432
Oscar 11 29 May 22:08:32 22:12:42 46° 261° (W) 22:16:55 .
UNISAT 6 29 May 22:21:51 22:22:36 10° 87° (E) 22:23:20 437.425
ISS 29 May 22:32:23 22:35:23 32° 346° (NNW) 22:38:24 437.550
HO-68 29 May 22:35:17 22:35:31 10° 277° (W) 22:35:45 435.675
EO-88 29 May 22:36:34 22:40:12 76° 76° (ENE) 22:43:54 145.990 - 145.960
M-CUBED/EXP-1 PRIME 29 May 22:39:28 22:42:45 78° 107° (ESE) 22:46:01 437.505
AO-73 29 May 22:41:05 22:44:02 18° 269° (W) 22:47:03 145.935
SO-50 29 May 22:44:15 22:48:47 64° 122° (ESE) 22:53:17 436.795
PRISM 29 May 22:57:20 23:00:45 25° 95° (E) 23:04:08 437.425
ESTCUBE 1 29 May 22:58:08 23:00:48 16° 61° (ENE) 23:03:27 437.505/2401.250
ZACube-1 29 May 22:59:14 23:00:30 11° 273° (W) 23:01:47 437.345
STRAND 1 29 May 22:59:36 23:02:27 15° 302° (WNW) 23:05:19 437.568
Tancredo 1 29 May 23:02:29 23:05:02 23° 357° (N) 23:07:34 437.200
LO-87 29 May 23:08:41 23:11:33 23° 69° (ENE) 23:14:25 145.935 - 145.965
TIGRISAT 29 May 23:22:35 23:26:57 40° 98° (E) 23:31:21 435.000
DELFI C3 29 May 23:27:23 23:30:28 21° 266° (W) 23:33:34 145.870
FO-29 29 May 23:27:32 23:34:00 55° 100° (E) 23:41:12 435.910
VELOX 1 29 May 23:39:44 23:40:56 11° 58° (ENE) 23:42:07 145.980
UNISAT 6 29 May 23:55:15 23:59:55 89° 288° (WNW) 00:04:36 437.425
ISS 30 May 00:09:40 00:12:31 26° 6° (N) 00:15:22 437.550
AIST 2D 30 May 00:16:33 00:19:11 19° 93° (E) 00:21:47 435.315
RS-15 30 May 00:16:53 00:19:02 11° 90° (E) 00:21:11 29.354- 29.394
YUBILEINY 30 May 00:20:10 00:25:50 20° 76° (ENE) 00:31:33 435.215
NANOSAT C BR1 30 May 00:24:01 00:25:34 12° 89° (E) 00:27:06 145.865
SO-50 30 May 00:26:02 00:29:37 22° 321° (NW) 00:33:12 436.795
POLYITAN 1 30 May 00:31:08 00:33:47 16° 91° (E) 00:36:26 437.675
DUCHIFAT 1 30 May 00:32:17 00:34:17 13° 90° (E) 00:36:17 145.980
PRISM 30 May 00:32:30 00:36:01 29° 293° (WNW) 00:39:30 437.425
ESTCUBE 1 30 May 00:32:33 00:37:04 66° 258° (WSW) 00:41:37 437.505/2401.250
Tancredo 1 30 May 00:38:30 00:41:20 33° 17° (NNE) 00:44:10 437.200
SPROUT 30 May 00:39:00 00:42:55 39° 70° (ENE) 00:46:54 437.525
QB50P2 30 May 00:39:33 00:42:49 21° 93° (E) 00:46:04 145.880/145.840
LO-87 30 May 00:42:03 00:44:56 23° 265° (W) 00:47:49 145.935 - 145.965
TIGRISAT 30 May 00:59:42 01:03:25 25° 295° (WNW) 01:07:11 435.000
VELOX 1 30 May 01:12:15 01:16:40 89° 82° (E) 01:21:06 145.980
FO-29 30 May 01:13:10 01:18:48 32° 296° (WNW) 01:25:00 435.910
EO-79 30 May 01:14:45 01:18:51 44° 99° (E) 01:22:56 145.935-145.965
UKube-1 30 May 01:21:06 01:24:48 29° 67° (ENE) 01:28:31 .
50 SAT 30 May 01:27:13 01:30:39 67° 75° (ENE) 01:34:04 437.505
UNISAT 6 30 May 01:34:10 01:35:55 12° 301° (WNW) 01:37:41 437.425
DX 1 30 May 01:35:48 01:40:04 58° 72° (ENE) 01:44:20 434.975-435.025
ISS 30 May 01:46:09 01:49:26 62° 26° (NNE) 01:52:42 437.550
AIST 2D 30 May 01:49:18 01:52:26 29° 290° (WNW) 01:55:32 435.315
NANOSAT C BR1 30 May 01:57:29 02:01:44 69° 286° (WNW) 02:05:58 145.865
POLYITAN 1 30 May 02:05:42 02:09:52 51° 288° (WNW) 02:14:02 437.675
DUCHIFAT 1 30 May 02:06:09 02:10:21 62° 286° (WNW) 02:14:32 145.980
BUGSAT 1 30 May 02:09:13 02:13:12 44° 99° (E) 02:17:13 437.445
YUBILEINY 30 May 02:12:36 02:21:20 89° 97° (E) 02:30:12 435.215
Tancredo 1 30 May 02:14:11 02:17:11 50° 215° (SW) 02:20:08 437.200
QB50P2 30 May 02:14:46 02:18:44 38° 290° (WNW) 02:22:42 145.880/145.840
SPROUT 30 May 02:15:50 02:18:59 20° 267° (W) 02:22:10 437.525
RS-15 30 May 02:16:49 02:28:21 54° 112° (ESE) 02:40:08 29.354- 29.394
BEESAT 30 May 02:20:52 02:23:22 14° 58° (ENE) 02:25:53 436.000
EO-79 30 May 02:51:16 02:54:18 19° 296° (WNW) 02:57:19 145.935-145.965
UKube-1 30 May 02:57:02 03:00:46 29° 264° (W) 03:04:32 .
Oscar 19 30 May 02:58:00 03:03:02 50° 100° (E) 03:08:01 437.125/150
Gurwin Techsat 1B 30 May 03:05:53 03:10:48 37° 97° (E) 03:15:42 435.225
MOZHAYETS 4 30 May 03:05:59 03:09:19 20° 63° (ENE) 03:12:41
PCSat 30 May 03:10:15 03:14:46 26° 43° (NE) 03:19:14 145.827
DX 1 30 May 03:14:13 03:16:37 14° 269° (W) 03:19:01 434.975-435.025
O/OREOS (USA 219) 30 May 03:19:19 03:22:10 16° 100° (E) 03:25:00 437.305
ISS 30 May 03:23:07 03:25:40 21° 224° (SW) 03:28:14 437.550
ITUPSAT 1 30 May 03:24:57 03:29:34 52° 71° (ENE) 03:34:15 437.325
BUGSAT 1 30 May 03:45:22 03:48:15 19° 296° (WNW) 03:51:09 437.445
BEESAT 30 May 03:55:45 04:00:30 79° 257° (WSW) 04:05:19 436.000
CUBESAT XI-V 30 May 04:02:57 04:05:39 15° 60° (ENE) 04:08:21 437.345
ITAMSAT 1 30 May 04:08:38 04:12:28 20° 92° (E) 04:16:17 435.822/435.867
YUBILEINY 30 May 04:12:57 04:19:25 22° 300° (WNW) 04:25:58 435.215
AO-85 30 May 04:22:32 04:26:12 31° 117° (ESE) 04:29:45 145.980
RS-15 30 May 04:28:54 04:40:55 58° 317° (NW) 04:53:07 29.354- 29.394
Oscar 19 30 May 04:37:59 04:42:02 24° 298° (WNW) 04:46:03 437.125/150
MOZHAYETS 4 30 May 04:41:39 04:46:07 50° 261° (W) 04:50:39
Gurwin Techsat 1B 30 May 04:45:59 04:50:40 32° 295° (WNW) 04:55:20 435.225
BEESAT 3 30 May 04:48:35 04:51:30 20° 113° (ESE) 04:54:29 437.485
PCSat 30 May 04:53:12 04:58:36 64° 243° (WSW) 05:03:56 145.827
AO-7 30 May 04:55:56 05:04:01 49° 101° (E) 05:12:02 .
O/OREOS (USA 219) 30 May 04:56:34 05:01:06 57° 297° (WNW) 05:05:38 437.305
ITUPSAT 1 30 May 05:04:19 05:07:42 19° 268° (W) 05:11:07 437.325
KKS-1 30 May 05:06:42 05:10:58 49° 71° (ENE) 05:15:15 437.445
STARS 30 May 05:26:54 05:30:52 35° 69° (ENE) 05:34:51 437.465
SO-50 30 May 05:33:57 05:37:08 18° 35° (NE) 05:40:18 436.795
CUBESAT XI-V 30 May 05:37:45 05:42:27 71° 258° (WSW) 05:47:10 437.345
ITAMSAT 1 30 May 05:47:10 05:52:17 56° 290° (WNW) 05:57:22 435.822/435.867
AO-85 30 May 06:02:58 06:06:34 30° 315° (NW) 06:10:05 145.980
BEESAT 2 30 May 06:13:40 06:17:34 57° 121° (ESE) 06:21:32 435.950
DOVE 4 30 May 06:22:05 06:24:16 14° 90° (E) 06:26:31 437.250
BEESAT 3 30 May 06:25:00 06:28:49 43° 311° (NW) 06:32:41 437.485
CUTE-I 30 May 06:34:06 06:35:11 11° 86° (E) 06:36:18 437.470
KKS-1 30 May 06:44:51 06:47:48 17° 268° (W) 06:50:46 437.445
RS-15 30 May 06:46:15 06:56:51 31° 349° (NNW) 07:07:22 29.354- 29.394
AO-7 30 May 06:48:57 06:56:41 44° 301° (WNW) 07:04:24 .
LilacSat-2 30 May 06:55:30 06:58:03 17° 92° (E) 07:00:36 437.200
STRAND 1 30 May 06:59:15 07:03:00 21° 61° (ENE) 07:06:47 437.568
STARS 30 May 07:03:47 07:07:17 24° 266° (W) 07:10:49 437.465
SO-50 30 May 07:13:39 07:18:10 84° 237° (WSW) 07:22:42 436.795
XW-2D 30 May 07:24:10 07:27:43 34° 97° (E) 07:31:12 145.860 - 145.880
NUDT-PHONESAT 30 May 07:28:33 07:31:53 28° 96° (E) 07:35:09 437.300
XW-2B 30 May 07:32:09 07:35:49 40° 98° (E) 07:39:26 145.730 - 145.750
XW-2F 30 May 07:41:45 07:45:31 51° 99° (E) 07:49:14 145.980 - 146.000
KAITUO 1B 30 May 07:42:33 07:46:12 42° 98° (E) 07:49:47 145.475/437.950
XW-2C 30 May 07:45:55 07:49:45 60° 101° (E) 07:53:32 145.795 - 145.815
BEESAT 2 30 May 07:52:39 07:55:39 20° 320° (NW) 07:58:42 435.950
M-CUBED/EXP-1 PRIME 30 May 07:54:19 07:56:33 15° 59° (ENE) 07:58:41 437.505
DOVE 4 30 May 07:58:13 08:02:19 56° 287° (WNW) 08:06:33 437.250
HO-68 30 May 08:05:23 08:11:05 24° 92° (E) 08:16:43 435.675
CUTE-I 30 May 08:10:42 08:16:04 80° 104° (ESE) 08:21:26 437.470
CUTE 1.7 + AOD 2 30 May 08:16:43 08:19:55 20° 92° (E) 08:23:05 437.475
NO-84 30 May 08:28:31 08:32:46 50° 136° (SE) 08:36:57 435.350 FM
LilacSat-2 30 May 08:28:51 08:32:30 39° 289° (WNW) 08:36:07 437.200
XW-2A 30 May 08:29:06 08:31:43 20° 94° (E) 08:34:19 145.665 - 145.685
STRAND 1 30 May 08:36:47 08:41:47 56° 259° (W) 08:46:50 437.568
AO-7 30 May 08:44:27 08:47:18 12° 324° (NW) 08:50:08 .
SO-50 30 May 08:57:21 08:57:52 10° 253° (WSW) 08:58:23 436.795
SEEDS 30 May 08:57:38 09:01:31 35° 97° (E) 09:05:21 437.485
XW-2D 30 May 08:58:50 09:01:41 20° 294° (WNW) 09:04:30 145.860 - 145.880
NUDT-PHONESAT 30 May 09:02:40 09:05:39 22° 293° (WNW) 09:08:37 437.300
RS-15 30 May 09:02:55 09:14:02 36° 23° (NNE) 09:24:48 29.354- 29.394
ZACube-1 30 May 09:07:03 09:09:22 14° 89° (E) 09:11:39 437.345
XW-2B 30 May 09:07:09 09:09:42 17° 295° (WNW) 09:12:14 145.730 - 145.750
XW-2F 30 May 09:17:10 09:19:13 14° 297° (WNW) 09:21:17 145.980 - 146.000
KAITUO 1B 30 May 09:17:29 09:19:52 16° 295° (WNW) 09:22:14 145.475/437.950
XW-2C 30 May 09:21:48 09:23:26 12° 298° (WNW) 09:25:05 145.795 - 145.815
UNISAT 6 30 May 09:22:30 09:24:07 12° 58° (ENE) 09:25:43 437.425
M-CUBED/EXP-1 PRIME 30 May 09:26:38 09:30:40 56° 253° (WSW) 09:34:26 437.505
CUBEBUG 2 30 May 09:35:48 09:40:26 72° 102° (ESE) 09:45:09 437.445
UWE-3 30 May 09:37:33 09:42:02 46° 98° (E) 09:46:31 435.000/436.395/437.385
FO-29 30 May 09:44:03 09:48:13 25° 61° (ENE) 09:52:37 435.910
AAUSAT CUBESAT 2 30 May 09:44:49 09:48:53 55° 100° (E) 09:52:55 437.432
PRISM 30 May 09:48:25 09:51:47 25° 66° (ENE) 09:55:10 437.425
CUTE 1.7 + AOD 2 30 May 09:51:55 09:55:54 39° 290° (WNW) 09:59:50 437.475
CUTE-I 30 May 09:52:11 09:55:28 17° 302° (WNW) 09:58:45 437.470
HO-68 30 May 09:52:12 09:59:23 70° 291° (WNW) 10:06:30 435.675
Oscar 11 30 May 09:53:48 09:57:33 27° 95° (E) 10:01:15 .
XW-2A 30 May 10:01:32 10:04:27 26° 291° (WNW) 10:07:22 145.665 - 145.685
NO-84 30 May 10:06:24 10:10:31 38° 334° (NNW) 10:14:29 435.350 FM
TIGRISAT 30 May 10:23:08 10:27:10 41° 70° (ENE) 10:31:19 435.000
AO-73 30 May 10:24:58 10:29:33 75° 102° (ESE) 10:34:07 145.935
YUBILEINY 30 May 10:27:18 10:29:28 11° 48° (NE) 10:31:37 435.215
SEEDS 30 May 10:33:43 10:37:01 23° 294° (WNW) 10:40:16 437.485
ZACube-1 30 May 10:41:31 10:46:05 69° 286° (WNW) 10:50:39 437.345
AIST 2D 30 May 10:54:42 10:55:31 11° 62° (ENE) 10:56:19 435.315
UNISAT 6 30 May 10:55:50 11:00:08 82° 258° (WSW) 11:04:34 437.425
DELFI C3 30 May 11:01:20 11:05:02 39° 98° (E) 11:08:43 145.870
CUBEBUG 2 30 May 11:13:54 11:16:31 15° 299° (WNW) 11:19:09 437.445
UWE-3 30 May 11:14:41 11:18:10 22° 295° (WNW) 11:21:41 435.000/436.395/437.385
RS-15 30 May 11:16:23 11:28:45 80° 53° (NE) 11:40:28 29.354- 29.394
NANOSAT C BR1 30 May 11:18:21 11:20:03 12° 60° (ENE) 11:21:46 145.865
AAUSAT CUBESAT 2 30 May 11:21:32 11:23:54 15° 297° (WNW) 11:26:16 437.432
PRISM 30 May 11:23:18 11:26:57 30° 263° (W) 11:30:37 437.425
POLYITAN 1 30 May 11:25:54 11:28:30 16° 62° (ENE) 11:31:06 437.675
DUCHIFAT 1 30 May 11:26:22 11:28:23 13° 61° (ENE) 11:30:24 145.980
FO-29 30 May 11:28:05 11:33:03 46° 262° (W) 11:38:18 435.910
Oscar 11 30 May 11:29:51 11:33:40 30° 292° (WNW) 11:37:27 .
QB50P2 30 May 11:34:11 11:37:19 21° 65° (ENE) 11:40:29 145.880/145.840
EO-88 30 May 11:36:51 11:40:34 76° 104° (ESE) 11:44:13 145.990 - 145.960
HO-68 30 May 11:41:44 11:45:53 16° 311° (NW) 11:50:00 435.675
NO-84 30 May 11:45:44 11:49:00 21° 355° (N) 11:52:08 435.350 FM
TIGRISAT 30 May 12:00:56 12:04:04 20° 268° (W) 12:07:16 435.000
AO-73 30 May 12:02:49 12:05:11 14° 299° (WNW) 12:07:32 145.935
LO-87 30 May 12:06:38 12:09:27 22° 95° (E) 12:12:15 145.935 - 145.965
EO-79 30 May 12:08:47 12:12:45 42° 71° (ENE) 12:16:44 145.935-145.965
YUBILEINY 30 May 12:20:23 12:28:56 50° 73° (ENE) 12:37:27 435.215
ESTCUBE 1 30 May 12:23:33 12:27:05 22° 93° (E) 12:30:36 437.505/2401.250
AIST 2D 30 May 12:24:43 12:28:13 60° 260° (W) 12:31:45 435.315
DELFI C3 30 May 12:36:50 12:39:32 18° 295° (WNW) 12:42:14 145.870
Oscar 19 30 May 12:40:39 12:43:17 14° 57° (ENE) 12:45:55 437.125/150
AO-85 30 May 12:50:58 12:54:52 49° 50° (NE) 12:58:57 145.980
NANOSAT C BR1 30 May 12:51:00 12:55:11 74° 259° (WSW) 12:59:23 145.865
BEESAT 2 30 May 12:53:09 12:54:54 12° 32° (NNE) 12:56:40 435.950
Gurwin Techsat 1B 30 May 12:53:19 12:55:04 12° 54° (NE) 12:56:50 435.225
DUCHIFAT 1 30 May 12:59:23 13:03:31 66° 258° (WSW) 13:07:42 145.980
POLYITAN 1 30 May 12:59:46 13:03:52 53° 260° (W) 13:08:01 437.675
BUGSAT 1 30 May 13:00:41 13:04:25 38° 70° (ENE) 13:08:11 437.445
VELOX 1 30 May 13:01:37 13:04:00 14° 90° (E) 13:06:21 145.980
BEESAT 3 30 May 13:02:35 13:06:01 26° 43° (NE) 13:09:25 437.485
QB50P2 30 May 13:08:55 13:12:52 39° 262° (W) 13:16:51 145.880/145.840
NO-84 30 May 13:24:09 13:27:39 26° 16° (NNE) 13:30:55 435.350 FM
O/OREOS (USA 219) 30 May 13:25:27 13:29:47 43° 60° (ENE) 13:34:04 437.305
RS-15 30 May 13:29:57 13:39:59 33° 257° (WSW) 13:49:38 29.354- 29.394
LO-87 30 May 13:39:52 13:42:51 25° 291° (WNW) 13:45:51 145.935 - 145.965
EO-79 30 May 13:45:46 13:48:42 18° 268° (W) 13:51:40 145.935-145.965
SPROUT 30 May 13:57:56 14:02:10 57° 101° (E) 14:06:24 437.525
ESTCUBE 1 30 May 13:59:49 14:04:02 39° 291° (WNW) 14:08:11 437.505/2401.250
AO-7 30 May 14:07:52 14:13:35 21° 46° (NE) 14:19:18 .
Oscar 19 30 May 14:16:38 14:21:50 88° 72° (ENE) 14:27:04 437.125/150
YUBILEINY 30 May 14:17:33 14:25:33 40° 274° (W) 14:33:31 435.215
50 SAT 30 May 14:20:50 14:24:10 50° 100° (E) 14:27:28 437.505
Gurwin Techsat 1B 30 May 14:28:48 14:34:04 71° 73° (ENE) 14:39:23 435.225
BEESAT 2 30 May 14:29:24 14:33:28 65° 53° (NE) 14:37:28 435.950
AO-85 30 May 14:32:06 14:34:57 18° 247° (WSW) 14:37:54 145.980
VELOX 1 30 May 14:36:30 14:40:50 60° 287° (WNW) 14:45:08 145.980
BUGSAT 1 30 May 14:37:09 14:39:56 18° 267° (W) 14:42:46 437.445
BEESAT 3 30 May 14:39:58 14:43:42 37° 242° (WSW) 14:47:22 437.485
UKube-1 30 May 14:41:18 14:45:20 37° 98° (E) 14:49:20 .
DX 1 30 May 14:57:47 15:02:08 83° 103° (ESE) 15:06:28 434.975-435.025
NO-84 30 May 15:01:44 15:05:43 87° 37° (NE) 15:09:19 435.350 FM
O/OREOS (USA 219) 30 May 15:05:32 15:08:53 21° 258° (WSW) 15:12:12 437.305
ITUPSAT 1 30 May 15:25:46 15:27:11 11° 88° (E) 15:28:36 437.325
ITAMSAT 1 30 May 15:28:13 15:32:58 38° 67° (ENE) 15:37:44 435.822/435.867
SPROUT 30 May 15:35:04 15:37:38 16° 298° (WNW) 15:40:12 437.525
BEESAT 30 May 15:54:23 15:58:08 22° 93° (E) 16:01:52 436.000
50 SAT 30 May 15:55:30 15:56:35 11° 297° (WNW) 15:57:41 437.505
AO-7 30 May 15:56:49 16:05:05 77° 68° (ENE) 16:13:25 .
Oscar 19 30 May 15:59:46 16:01:52 12° 273° (W) 16:03:56 437.125/150
BEESAT 2 30 May 16:08:38 16:10:43 14° 250° (WSW) 16:12:46 435.950
Gurwin Techsat 1B 30 May 16:11:19 16:14:33 16° 270° (W) 16:17:49 435.225
UKube-1 30 May 16:17:47 16:21:09 23° 295° (WNW) 16:24:29 .
MOZHAYETS 4 30 May 16:34:36 16:38:48 32° 96° (E) 16:42:58
DX 1 30 May 16:36:06 16:37:40 12° 302° (WNW) 16:39:14 434.975-435.025
NO-84 30 May 16:40:54 16:42:37 13° 237° (WSW) 16:44:17 435.350 FM
ITUPSAT 1 30 May 17:00:48 17:05:39 87° 286° (WNW) 17:10:28 437.325
ITAMSAT 1 30 May 17:08:00 17:12:29 30° 264° (W) 17:17:01 435.822/435.867
DOVE 4 30 May 17:29:21 17:32:27 19° 65° (ENE) 17:35:28 437.250
BEESAT 30 May 17:31:32 17:36:06 44° 291° (WNW) 17:40:38 436.000
CUBESAT XI-V 30 May 17:32:45 17:36:33 24° 93° (E) 17:40:19 437.345
LilacSat-2 30 May 17:40:23 17:41:59 12° 62° (ENE) 17:43:36 437.200
AO-7 30 May 17:52:08 17:58:38 25° 268° (W) 18:05:13 .
CUTE-I 30 May 17:56:11 18:00:18 24° 62° (ENE) 18:04:27 437.470
PCSat 30 May 17:57:24 17:59:14 12° 102° (ESE) 18:01:05 145.827
XW-2D 30 May 18:07:31 18:10:33 23° 67° (ENE) 18:13:36 145.860 - 145.880
NUDT-PHONESAT 30 May 18:10:13 18:12:51 18° 66° (ENE) 18:15:29 437.300
MOZHAYETS 4 30 May 18:11:52 18:15:52 29° 293° (WNW) 18:19:50
XW-2B 30 May 18:15:21 18:18:35 26° 68° (ENE) 18:21:50 145.730 - 145.750
XW-2F 30 May 18:24:24 18:27:49 32° 70° (ENE) 18:31:16 145.980 - 146.000
KAITUO 1B 30 May 18:24:29 18:27:41 27° 69° (ENE) 18:30:56 145.475/437.950
XW-2C 30 May 18:28:52 18:32:25 38° 71° (ENE) 18:36:01 145.795 - 145.815
KKS-1 30 May 18:31:41 18:36:09 76° 103° (ESE) 18:40:35 437.445
HO-68 30 May 18:36:51 18:42:23 25° 55° (NE) 18:47:55 435.675
ITUPSAT 1 30 May 18:40:45 18:42:44 12° 303° (WNW) 18:44:43 437.325
Tancredo 1 30 May 18:49:04 18:50:21 12° 133° (SE) 18:51:39 437.200
STARS 30 May 18:49:50 18:54:07 51° 100° (E) 18:58:25 437.465
XW-2A 30 May 19:04:33 19:04:58 10° 62° (ENE) 19:05:24 145.665 - 145.685
DOVE 4 30 May 19:05:36 19:09:53 45° 261° (W) 19:14:01 437.250
CUBESAT XI-V 30 May 19:09:44 19:14:02 38° 291° (WNW) 19:18:16 437.345
CUTE 1.7 + AOD 2 30 May 19:11:22 19:14:29 20° 65° (ENE) 19:17:36 437.475
LilacSat-2 30 May 19:11:56 19:15:45 62° 259° (W) 19:19:37 437.200
CUTE-I 30 May 19:34:50 19:40:00 53° 259° (W) 19:45:13 437.470
PCSat 30 May 19:36:18 19:41:43 80° 118° (ESE) 19:47:11 145.827
XW-2D 30 May 19:41:14 19:44:35 29° 264° (W) 19:47:59 145.860 - 145.880
NUDT-PHONESAT 30 May 19:43:04 19:46:30 35° 263° (W) 19:49:59 437.300
XW-2B 30 May 19:49:34 19:52:44 24° 265° (W) 19:55:56 145.730 - 145.750
SEEDS 30 May 19:50:57 19:54:43 32° 69° (ENE) 19:58:31 437.485
KAITUO 1B 30 May 19:58:34 20:01:40 24° 265° (W) 20:04:48 145.475/437.950
XW-2F 30 May 19:59:11 20:02:02 20° 267° (W) 20:04:54 145.980 - 146.000
ISS 30 May 20:03:37 20:06:42 38° 142° (SE) 20:09:49 437.550
XW-2C 30 May 20:04:12 20:06:46 17° 268° (W) 20:09:21 145.795 - 145.815
ZACube-1 30 May 20:05:17 20:07:26 14° 60° (ENE) 20:09:36 437.345
KKS-1 30 May 20:10:00 20:12:06 13° 301° (WNW) 20:14:13 437.445
HO-68 30 May 20:22:12 20:29:23 78° 255° (WSW) 20:36:38 435.675
Tancredo 1 30 May 20:22:34 20:25:38 88° 151° (SSE) 20:28:43 437.200
STARS 30 May 20:27:06 20:30:06 18° 298° (WNW) 20:33:05 437.465
XW-2A 30 May 20:33:55 20:37:14 56° 260° (W) 20:40:36 145.665 - 145.685
CUBEBUG 2 30 May 20:35:43 20:39:53 72° 75° (ENE) 20:44:12 437.445
UWE-3 30 May 20:36:22 20:40:23 44° 71° (ENE) 20:44:33 435.000/436.395/437.385
AAUSAT CUBESAT 2 30 May 20:36:22 20:40:22 46° 72° (ENE) 20:44:23 437.432
CUTE 1.7 + AOD 2 30 May 20:45:55 20:50:00 43° 262° (W) 20:54:09 437.475
